| time (UTC) | temp F | wind direction | speed knots | gust knots | rain 1hr in | rain 24hr in | rain mn in | humidity % | barometer mb |
| 20260505063740 | 54 | 1 | 0.0 | 0.9 | 0.00 | 0.00 | 0.00 | 88 | 1010.7 |
| 20260505063239 | 53 | 1 | 0.0 | 0.9 | 0.00 | 0.00 | 0.00 | 88 | 1010.9 |
| 20260505062736 | 53 | 46 | 0.0 | 0.9 | 0.00 | 0.00 | 0.00 | 87 | 1010.9 |
| 20260505062236 | 53 | 46 | 0.0 | 1.7 | 0.00 | 0.00 | 0.00 | 87 | 1010.9 |
| 20260505061741 | 53 | 28 | 0.0 | 1.7 | 0.00 | 0.00 | 0.00 | 86 | 1010.9 |
| 20260505061236 | 53 | 63 | 0.0 | 0.9 | 0.00 | 0.00 | 0.00 | 86 | 1010.8 |
| 20260505060957 | 53 | 46 | 0.0 | 0.9 | 0.00 | 0.00 | 0.00 | 86 | 1010.8 |
| 20260505060236 | 54 | 46 | 0.0 | 0.9 | 0.00 | 0.00 | 0.00 | 85 | 1010.7 |
| 20260505055740 | 54 | 314 | 0.0 | 0.9 | 0.00 | 0.00 | 0.00 | 84 | 1010.8 |
| 20260505055459 | 54 | 89 | 0.0 | 0.9 | 0.00 | 0.00 | 0.00 | 84 | 1010.8 |
| 20260505054739 | 54 | 1 | 0.0 | 0.9 | 0.00 | 0.00 | 0.00 | 84 | 1010.9 |
| 20260505054234 | 54 | 20 | 0.0 | 0.9 | 0.00 | 0.00 | 0.00 | 84 | 1010.8 |
| 20260505053733 | 54 | 46 | 0.0 | 0.9 | 0.00 | 0.00 | 0.00 | 83 | 1010.8 |
| 20260505053234 | 54 | 223 | 0.0 | 0.9 | 0.00 | 0.00 | 0.00 | 83 | 1010.9 |
| 20260505052734 | 54 | 46 | 0.0 | 1.7 | 0.00 | 0.00 | 0.00 | 84 | 1010.9 |
| 20260505052233 | 55 | 46 | 0.0 | 1.7 | 0.00 | 0.00 | 0.00 | 84 | 1010.9 |
| 20260505052001 | 55 | 1 | 0.0 | 1.7 | 0.00 | 0.00 | 0.00 | 84 | 1010.8 |
| 20260505051233 | 55 | 46 | 0.9 | 3.5 | 0.00 | 0.00 | 0.00 | 84 | 1010.8 |
| 20260505050733 | 55 | 344 | 0.0 | 3.5 | 0.00 | 0.00 | 0.00 | 83 | 1010.8 |
| 20260505050237 | 55 | 35 | 0.0 | 3.5 | 0.00 | 0.00 | 0.00 | 81 | 1010.8 |
| 20260505041639 | 57 | 314 | 0.0 | 1.7 | 0.00 | 0.00 | 0.00 | 78 | 1010.7 |
| 20260505041133 | 57 | 46 | 0.0 | 0.9 | 0.00 | 0.00 | 0.00 | 78 | 1010.7 |
| 20260505040627 | 57 | 46 | 0.0 | 0.9 | 0.00 | 0.00 | 0.00 | 78 | 1010.6 |
| 20260505040121 | 57 | 89 | 0.0 | 0.9 | 0.00 | 0.00 | 0.00 | 78 | 1010.6 |
| 20260505035622 | 57 | 46 | 0.9 | 3.5 | 0.00 | 0.00 | 0.00 | 78 | 1010.6 |
| 20260505035112 | 58 | 1 | 0.9 | 3.5 | 0.00 | 0.00 | 0.00 | 78 | 1010.5 |
| 20260505034611 | 58 | 135 | 0.0 | 2.6 | 0.00 | 0.00 | 0.00 | 77 | 1010.5 |
| 20260505034100 | 58 | 178 | 0.0 | 2.6 | 0.00 | 0.00 | 0.00 | 77 | 1010.5 |
| 20260505033555 | 58 | 79 | 0.0 | 2.6 | 0.00 | 0.00 | 0.00 | 77 | 1010.6 |
| 20260505033048 | 58 | 1 | 0.9 | 2.6 | 0.00 | 0.00 | 0.00 | 77 | 1010.6 |
| 20260505032542 | 58 | 28 | 0.9 | 2.6 | 0.00 | 0.00 | 0.00 | 77 | 1010.7 |
| 20260505032036 | 58 | 117 | 0.9 | 3.5 | 0.00 | 0.00 | 0.00 | 77 | 1010.7 |
| 20260505031530 | 58 | 314 | 0.9 | 5.2 | 0.00 | 0.00 | 0.00 | 77 | 1010.7 |
| 20260505031024 | 58 | 63 | 0.9 | 5.2 | 0.00 | 0.00 | 0.00 | 76 | 1010.8 |
| 20260505030518 | 58 | 178 | 0.9 | 3.5 | 0.00 | 0.00 | 0.00 | 76 | 1010.8 |
| 20260505030012 | 58 | 46 | 0.9 | 3.5 | 0.00 | 0.00 | 0.00 | 76 | 1010.7 |
| 20260505025505 | 58 | 174 | 0.9 | 3.5 | 0.00 | 0.00 | 0.00 | 76 | 1010.7 |
| 20260505024959 | 58 | 269 | 0.9 | 2.6 | 0.00 | 0.00 | 0.00 | 76 | 1010.7 |
| 20260505024454 | 58 | 276 | 0.9 | 2.6 | 0.00 | 0.00 | 0.00 | 76 | 1010.7 |
| 20260505024203 | 58 | 142 | 0.9 | 3.5 | 0.00 | 0.00 | 0.00 | 75 | 1010.6 |
| 20260505023442 | 58 | 117 | 0.9 | 3.5 | 0.00 | 0.00 | 0.00 | 76 | 1010.7 |
| 20260505022940 | 59 | 145 | 0.0 | 1.7 | 0.00 | 0.00 | 0.00 | 75 | 1010.7 |
| 20260505022430 | 59 | 46 | 0.0 | 0.9 | 0.00 | 0.00 | 0.00 | 75 | 1010.7 |
| 20260505022151 | 59 | 28 | 0.0 | 0.9 | 0.00 | 0.00 | 0.00 | 75 | 1010.8 |
| 20260505021418 | 59 | 135 | 0.0 | 0.9 | 0.00 | 0.00 | 0.00 | 74 | 1010.9 |
| 20260505020912 | 59 | 1 | 0.0 | 0.9 | 0.00 | 0.00 | 0.00 | 74 | 1010.9 |
| 20260505020406 | 60 | 269 | 0.0 | 1.7 | 0.00 | 0.00 | 0.00 | 73 | 1010.9 |
| 20260505020122 | 60 | 89 | 0.0 | 1.7 | 0.00 | 0.00 | 0.00 | 73 | 1010.9 |
| 20260505015353 | 60 | 46 | 0.0 | 0.9 | 0.00 | 0.00 | 0.00 | 73 | 1010.9 |
| 20260505014847 | 60 | 1 | 0.0 | 2.6 | 0.00 | 0.00 | 0.00 | 73 | 1010.9 |
| 20260505014608 | 60 | 28 | 0.9 | 2.6 | 0.00 | 0.00 | 0.00 | 72 | 1010.8 |
| 20260505014059 | 60 | 1 | 0.0 | 1.7 | 0.00 | 0.00 | 0.00 | 72 | 1010.7 |
| 20260505013330 | 61 | 46 | 0.0 | 1.7 | 0.00 | 0.00 | 0.00 | 71 | 1010.6 |
| 20260505012824 | 61 | 178 | 0.9 | 2.6 | 0.00 | 0.00 | 0.00 | 71 | 1010.6 |
| 20260505012542 | 61 | 135 | 0.9 | 2.6 | 0.00 | 0.00 | 0.00 | 71 | 1010.6 |
| 20260505011815 | 62 | 286 | 0.0 | 1.7 | 0.00 | 0.00 | 0.00 | 70 | 1010.5 |
| 20260505011316 | 62 | 178 | 0.0 | 1.7 | 0.00 | 0.00 | 0.00 | 70 | 1010.5 |
| 20260505010816 | 62 | 46 | 0.0 | 2.6 | 0.00 | 0.00 | 0.00 | 70 | 1010.4 |
| 20260505010315 | 62 | 135 | 0.9 | 2.6 | 0.00 | 0.00 | 0.00 | 70 | 1010.4 |
| 20260505005816 | 62 | 141 | 0.9 | 2.6 | 0.00 | 0.00 | 0.00 | 69 | 1010.4 |
| 20260505005315 | 63 | 56 | 0.9 | 3.5 | 0.00 | 0.00 | 0.00 | 69 | 1010.3 |
| 20260505004816 | 63 | 223 | 0.9 | 3.5 | 0.00 | 0.00 | 0.00 | 68 | 1010.3 |
| 20260505004315 | 63 | 28 | 0.0 | 1.7 | 0.00 | 0.00 | 0.00 | 68 | 1010.2 |
| 20260505004254 | 64 | 269 | 0.9 | 4.3 | 0.00 | 0.00 | 0.00 | 68 | 1010.2 |
| 20260505003803 | 64 | 269 | 0.9 | 4.3 | 0.00 | 0.00 | 0.00 | 68 | 1010.2 |
| 20260505003038 | 65 | 314 | 0.9 | 3.5 | 0.00 | 0.00 | 0.00 | 67 | 1010.2 |
| 20260505002539 | 65 | 72 | 0.9 | 2.6 | 0.00 | 0.00 | 0.00 | 67 | 1010.2 |
| 20260505001814 | 65 | 1 | 0.9 | 2.6 | 0.00 | 0.00 | 0.00 | 67 | 1009.9 |
| 20260505001314 | 66 | 314 | 0.0 | 1.7 | 0.00 | 0.00 | 0.00 | 66 | 1009.9 |
| 20260505001037 | 66 | 135 | 0.0 | 1.7 | 0.00 | 0.00 | 0.00 | 65 | 1009.9 |
| 20260505000312 | 67 | 314 | 0.9 | 1.7 | 0.00 | 0.00 | 0.00 | 65 | 1009.9 |
| 20260504235811 | 67 | 213 | 0.9 | 2.6 | 0.00 | 0.00 | 0.00 | 64 | 1009.9 |
| 20260504235536 | 67 | 269 | 0.9 | 2.6 | 0.00 | 0.00 | 0.00 | 64 | 1009.8 |
| 20260504234809 | 68 | 135 | 1.7 | 9.6 | 0.00 | 0.00 | 0.00 | 63 | 1009.8 |
| 20260504234310 | 68 | 170 | 1.7 | 9.6 | 0.00 | 0.00 | 0.00 | 63 | 1009.9 |
| 20260504233809 | 68 | 292 | 1.7 | 4.3 | 0.00 | 0.00 | 0.00 | 62 | 1009.9 |
| 20260504233309 | 69 | 234 | 0.9 | 4.3 | 0.00 | 0.00 | 0.00 | 62 | 1009.9 |
| 20260504232809 | 69 | 178 | 1.7 | 5.2 | 0.00 | 0.00 | 0.00 | 62 | 1009.9 |
| 20260504232303 | 69 | 46 | 1.7 | 7.0 | 0.00 | 0.00 | 0.00 | 61 | 1009.9 |
| 20260504231754 | 70 | 245 | 1.7 | 7.0 | 0.00 | 0.00 | 0.00 | 61 | 1009.9 |
| 20260504231253 | 70 | 250 | 1.7 | 7.0 | 0.00 | 0.00 | 0.00 | 60 | 1009.9 |
| 20260504230743 | 70 | 258 | 1.7 | 10.4 | 0.00 | 0.00 | 0.00 | 60 | 1009.9 |
| 20260504230237 | 71 | 269 | 1.7 | 10.4 | 0.00 | 0.00 | 0.00 | 59 | 1009.9 |
| 20260504225730 | 71 | 142 | 2.6 | 8.7 | 0.00 | 0.00 | 0.00 | 58 | 1009.9 |
| 20260504225451 | 71 | 231 | 2.6 | 8.7 | 0.00 | 0.00 | 0.00 | 59 | 1009.9 |
| 20260504224719 | 71 | 100 | 2.6 | 8.7 | 0.00 | 0.00 | 0.00 | 59 | 1009.9 |
| 20260504224213 | 71 | 1 | 2.6 | 8.7 | 0.00 | 0.00 | 0.00 | 60 | 1009.9 |
| 20260504223707 | 71 | 146 | 2.6 | 8.7 | 0.00 | 0.00 | 0.00 | 60 | 1009.9 |
| 20260504223201 | 71 | 28 | 1.7 | 8.7 | 0.00 | 0.00 | 0.00 | 59 | 1009.9 |
| 20260504222654 | 71 | 245 | 2.6 | 13.9 | 0.00 | 0.00 | 0.00 | 60 | 1009.9 |
| 20260504222148 | 71 | 241 | 2.6 | 13.9 | 0.00 | 0.00 | 0.00 | 58 | 1009.9 |
| 20260504221643 | 72 | 253 | 2.6 | 9.6 | 0.00 | 0.00 | 0.00 | 59 | 1009.9 |
| 20260504221355 | 72 | 237 | 3.5 | 9.6 | 0.00 | 0.00 | 0.00 | 57 | 1010.0 |
| 20260504220631 | 72 | 227 | 3.5 | 9.6 | 0.00 | 0.00 | 0.00 | 58 | 1010.0 |
| 20260504220125 | 72 | 152 | 3.5 | 13.0 | 0.00 | 0.00 | 0.00 | 57 | 1009.9 |
| 20260504215618 | 72 | 243 | 3.5 | 13.0 | 0.00 | 0.00 | 0.00 | 58 | 1009.9 |
| 20260504215113 | 73 | 202 | 2.6 | 10.4 | 0.00 | 0.00 | 0.00 | 57 | 1010.0 |
| 20260504214607 | 73 | 259 | 3.5 | 11.3 | 0.00 | 0.00 | 0.00 | 57 | 1010.2 |
| 20260504214102 | 73 | 269 | 3.5 | 11.3 | 0.00 | 0.00 | 0.00 | 58 | 1010.2 |
| 20260504213601 | 73 | 188 | 2.6 | 10.4 | 0.00 | 0.00 | 0.00 | 57 | 1010.0 |
| 20260504213059 | 73 | 269 | 3.5 | 15.6 | 0.00 | 0.00 | 0.00 | 56 | 1010.2 |
| 20260504212559 | 73 | 274 | 4.3 | 15.6 | 0.00 | 0.00 | 0.00 | 58 | 1010.2 |
| 20260504212320 | 73 | 228 | 3.5 | 15.6 | 0.00 | 0.00 | 0.00 | 55 | 1010.0 |
| 20260504211559 | 73 | 241 | 3.5 | 15.6 | 0.00 | 0.00 | 0.00 | 56 | 1010.2 |
| 20260504211059 | 73 | 178 | 3.5 | 13.9 | 0.00 | 0.00 | 0.00 | 57 | 1010.2 |
| 20260504210559 | 73 | 245 | 4.3 | 12.2 | 0.00 | 0.00 | 0.00 | 58 | 1010.2 |
| 20260504210059 | 73 | 220 | 4.3 | 11.3 | 0.00 | 0.00 | 0.00 | 58 | 1010.2 |
| 20260504205559 | 73 | 269 | 4.3 | 12.2 | 0.00 | 0.00 | 0.00 | 57 | 1010.3 |
| 20260504205059 | 73 | 272 | 3.5 | 12.2 | 0.00 | 0.00 | 0.00 | 57 | 1010.2 |
| 20260504204557 | 73 | 187 | 3.5 | 11.3 | 0.00 | 0.00 | 0.00 | 57 | 1010.0 |
| 20260504204057 | 73 | 241 | 3.5 | 12.2 | 0.00 | 0.00 | 0.00 | 59 | 1010.2 |
| 20260504203601 | 73 | 274 | 4.3 | 12.2 | 0.00 | 0.00 | 0.00 | 57 | 1010.0 |
| 20260504203058 | 73 | 223 | 3.5 | 11.3 | 0.00 | 0.00 | 0.00 | 55 | 1010.2 |
| 20260504202557 | 73 | 276 | 3.5 | 11.3 | 0.00 | 0.00 | 0.00 | 57 | 1010.4 |
| 20260504202057 | 73 | 245 | 3.5 | 13.0 | 0.00 | 0.00 | 0.00 | 55 | 1010.3 |
| 20260504202040 | 73 | 28 | 4.3 | 13.9 | 0.00 | 0.00 | 0.00 | 56 | 1010.5 |
| 20260504201057 | 73 | 241 | 4.3 | 13.9 | 0.00 | 0.00 | 0.00 | 58 | 1010.6 |
| 20260504200822 | 73 | 248 | 3.5 | 8.7 | 0.00 | 0.00 | 0.00 | 59 | 1010.7 |
| 20260504200318 | 73 | 245 | 3.5 | 9.6 | 0.00 | 0.00 | 0.00 | 59 | 1010.6 |
| 20260504195810 | 72 | 89 | 4.3 | 13.9 | 0.00 | 0.00 | 0.00 | 59 | 1010.8 |
| 20260504195055 | 72 | 281 | 4.3 | 13.9 | 0.00 | 0.00 | 0.00 | 58 | 1010.9 |
| 20260504194555 | 72 | 286 | 3.5 | 9.6 | 0.00 | 0.00 | 0.00 | 60 | 1011.0 |
| 20260504194055 | 72 | 229 | 3.5 | 9.6 | 0.00 | 0.00 | 0.00 | 59 | 1011.0 |
| 20260504193815 | 72 | 338 | 3.5 | 9.6 | 0.00 | 0.00 | 0.00 | 59 | 1011.1 |
| 20260504193047 | 72 | 237 | 3.5 | 9.6 | 0.00 | 0.00 | 0.00 | 62 | 1011.2 |
| 20260504192540 | 72 | 46 | 4.3 | 15.6 | 0.00 | 0.00 | 0.00 | 59 | 1011.2 |
| 20260504192301 | 72 | 241 | 4.3 | 15.6 | 0.00 | 0.00 | 0.00 | 61 | 1011.4 |
| 20260504191528 | 72 | 277 | 4.3 | 13.0 | 0.00 | 0.00 | 0.00 | 57 | 1011.5 |
| 20260504191023 | 72 | 206 | 3.5 | 13.0 | 0.00 | 0.00 | 0.00 | 63 | 1011.6 |
| 20260504190516 | 72 | 276 | 3.5 | 13.0 | 0.00 | 0.00 | 0.00 | 61 | 1011.5 |
| 20260504190010 | 72 | 152 | 3.5 | 8.7 | 0.00 | 0.00 | 0.00 | 64 | 1011.6 |
| 20260504185504 | 72 | 139 | 3.5 | 13.9 | 0.00 | 0.00 | 0.00 | 60 | 1011.7 |
| 20260504184958 | 71 | 186 | 3.5 | 14.8 | 0.00 | 0.00 | 0.00 | 59 | 1011.6 |
| 20260504184713 | 72 | 56 | 4.3 | 14.8 | 0.00 | 0.00 | 0.00 | 58 | 1011.7 |
| 20260504184206 | 71 | 178 | 3.5 | 12.2 | 0.00 | 0.00 | 0.00 | 60 | 1011.6 |
| 20260504183440 | 71 | 250 | 3.5 | 9.6 | 0.00 | 0.00 | 0.00 | 61 | 1011.7 |
| 20260504182934 | 71 | 178 | 3.5 | 10.4 | 0.00 | 0.00 | 0.00 | 61 | 1011.7 |
| 20260504182428 | 71 | 259 | 3.5 | 10.4 | 0.00 | 0.00 | 0.00 | 59 | 1011.7 |
| 20260504182148 | 71 | 169 | 3.5 | 10.4 | 0.00 | 0.00 | 0.00 | 60 | 1011.9 |
| 20260504181415 | 71 | 269 | 3.5 | 11.3 | 0.00 | 0.00 | 0.00 | 60 | 1012.0 |
| 20260504181128 | 71 | 319 | 3.5 | 11.3 | 0.00 | 0.00 | 0.00 | 60 | 1012.0 |
| 20260504180627 | 72 | 239 | 2.6 | 9.6 | 0.00 | 0.00 | 0.00 | 60 | 1012.1 |
| 20260504175857 | 71 | 0 | 2.6 | 10.4 | 0.00 | 0.00 | 0.00 | 63 | 1012.2 |
| 20260504175610 | 71 | 269 | 3.5 | 13.9 | 0.00 | 0.00 | 0.00 | 64 | 1012.2 |
| 20260504174846 | 71 | 269 | 3.5 | 13.9 | 0.00 | 0.00 | 0.00 | 63 | 1012.2 |
| 20260504174428 | 70 | 307 | 3.5 | 9.6 | 0.00 | 0.00 | 0.00 | 61 | 1012.3 |
| 20260504173328 | 70 | 135 | 4.3 | 12.2 | 0.00 | 0.00 | 0.00 | 67 | 1012.5 |
| 20260504172822 | 70 | 307 | 3.5 | 13.0 | 0.00 | 0.00 | 0.00 | 60 | 1012.5 |
| 20260504172317 | 70 | 354 | 3.5 | 12.2 | 0.00 | 0.00 | 0.00 | 62 | 1012.6 |
| 20260504172259 | 70 | 334 | 4.3 | 12.2 | 0.00 | 0.00 | 0.00 | 60 | 1012.5 |
| 20260504171304 | 70 | 222 | 4.3 | 12.2 | 0.00 | 0.00 | 0.00 | 61 | 1012.7 |
| 20260504170758 | 70 | 245 | 4.3 | 12.2 | 0.00 | 0.00 | 0.00 | 66 | 1012.9 |
| 20260504170512 | 70 | 244 | 4.3 | 12.2 | 0.00 | 0.00 | 0.00 | 63 | 1012.8 |
| 20260504160237 | 69 | 278 | 3.5 | 9.6 | 0.00 | 0.00 | 0.00 | 64 | 1013.5 |
| 20260504150730 | 66 | 288 | 3.5 | 13.9 | 0.00 | 0.00 | 0.00 | 64 | 1014.0 |
| 20260504150229 | 66 | 46 | 3.5 | 13.9 | 0.00 | 0.00 | 0.00 | 68 | 1014.0 |
| 20260504141134 | 62 | 310 | 3.5 | 11.3 | 0.00 | 0.00 | 0.00 | 72 | 1014.2 |
| 20260504140634 | 62 | 248 | 3.5 | 11.3 | 0.00 | 0.00 | 0.00 | 74 | 1014.2 |
| 20260504140123 | 62 | 170 | 3.5 | 14.8 | 0.00 | 0.00 | 0.00 | 73 | 1014.2 |
| 20260504130522 | 55 | 234 | 1.7 | 7.8 | 0.00 | 0.00 | 0.00 | 82 | 1014.4 |
| 20260504110350 | 40 | 46 | 0.0 | 0.9 | 0.00 | 0.00 | 0.00 | 88 | 1014.8 |
| 20260504100342 | 41 | 46 | 0.0 | 0.9 | 0.00 | 0.00 | 0.00 | 86 | 1015.1 |
| 20260504081652 | 40 | 314 | 0.0 | 1.7 | 0.00 | 0.00 | 0.00 | 84 | 1015.2 |
| 20260504081146 | 40 | 15 | 0.9 | 2.6 | 0.00 | 0.00 | 0.00 | 84 | 1015.1 |
| 20260504080640 | 40 | 314 | 0.9 | 2.6 | 0.00 | 0.00 | 0.00 | 84 | 1015.1 |
| 20260504080133 | 40 | 314 | 0.9 | 3.5 | 0.00 | 0.00 | 0.00 | 83 | 1015.1 |
| 20260504070112 | 42 | 269 | 0.0 | 0.9 | 0.00 | 0.00 | 0.00 | 78 | 1015.1 |